When you browse on this site, cookies collect data to enhance your experience and personalize the content and advertising you see.
Visit our Privacy Policy to learn more. By continuing to use the site, you agree to this use of cookies and data.

Hourly Weather Iecava

Today, 12 August, Wednesday

Time Temperature Precipitation Wind Pressure Humidity
00:00 +13°C° 0 mm 1 mps 765 mmHg 81%
01:00 +12°C° 0 mm 1 mps 765 mmHg 83%
02:00 +11°C° 0 mm 1 mps 765 mmHg 83%
03:00 +11°C° 0 mm 1 mps 765 mmHg 84%
04:00 +11°C° 0 mm 1 mps 765 mmHg 85%
05:00 +10°C° 0 mm 1 mps 765 mmHg 86%
06:00 +12°C° 0 mm 1 mps 765 mmHg 80%
07:00 +14°C° 0 mm 1 mps 765 mmHg 74%
08:00 +16°C° 0 mm 1 mps 765 mmHg 68%
09:00 +17°C° 0 mm 2 mps 765 mmHg 63%
10:00 +18°C° 0 mm 2 mps 765 mmHg 58%
11:00 +19°C° 0 mm 2 mps 765 mmHg 52%
12:00 +20°C° 0 mm 2 mps 765 mmHg 50%
13:00 +20°C° 0 mm 2 mps 765 mmHg 49%
14:00 +21°C° 0 mm 2 mps 765 mmHg 47%
15:00 +21°C° 0 mm 3 mps 765 mmHg 49%
16:00 +20°C° 0 mm 3 mps 764 mmHg 51%
17:00 +20°C° 0 mm 3 mps 764 mmHg 53%
18:00 +18°C° 0 mm 2 mps 764 mmHg 60%
19:00 +16°C° 0 mm 2 mps 764 mmHg 68%
20:00 +15°C° 0 mm 2 mps 764 mmHg 75%
21:00 +14°C° 0 mm 1 mps 764 mmHg 78%
22:00 +13°C° 0 mm 1 mps 764 mmHg 81%
23:00 +12°C° 0 mm 1 mps 764 mmHg 85%

Tomorrow, 13 August, Thursday

Time Temperature Precipitation Wind Pressure Humidity
00:00 +12°C° 0 mm 1 mps 764 mmHg 86%
01:00 +11°C° 0 mm 0 mps 764 mmHg 87%
02:00 +11°C° 0 mm 0 mps 764 mmHg 88%
03:00 +10°C° 0 mm 0 mps 763 mmHg 88%
04:00 +11°C° 0 mm 1 mps 763 mmHg 88%
05:00 +11°C° 0 mm 1 mps 763 mmHg 89%
06:00 +13°C° 0 mm 1 mps 763 mmHg 82%
07:00 +15°C° 0 mm 1 mps 763 mmHg 76%
08:00 +16°C° 0 mm 1 mps 763 mmHg 70%
09:00 +18°C° 0 mm 1 mps 762 mmHg 66%
10:00 +19°C° 0 mm 1 mps 762 mmHg 63%
11:00 +20°C° 0 mm 1 mps 762 mmHg 60%
12:00 +20°C° 0 mm 1 mps 762 mmHg 62%
13:00 +20°C° 0 mm 1 mps 762 mmHg 64%
14:00 +20°C° 0 mm 1 mps 761 mmHg 66%
15:00 +20°C° 0 mm 1 mps 761 mmHg 67%
16:00 +20°C° 0 mm 1 mps 761 mmHg 67%
17:00 +20°C° 0 mm 1 mps 761 mmHg 67%
18:00 +18°C° 0 mm 2 mps 761 mmHg 71%
19:00 +17°C° 0 mm 2 mps 761 mmHg 74%
20:00 +16°C° 0 mm 2 mps 761 mmHg 78%
21:00 +16°C° 0 mm 2 mps 761 mmHg 80%
22:00 +16°C° 0 mm 2 mps 761 mmHg 81%
23:00 +15°C° 0 mm 1 mps 761 mmHg 83%

Day after tomorrow, 14 August, Friday

Time Temperature Precipitation Wind Pressure Humidity
00:00 +15°C° 0 mm 1 mps 761 mmHg 85%
01:00 +14°C° 0 mm 1 mps 761 mmHg 87%
02:00 +14°C° 0 mm 1 mps 761 mmHg 90%
03:00 +13°C° 0 mm 1 mps 761 mmHg 91%
04:00 +13°C° 0 mm 1 mps 761 mmHg 91%
05:00 +13°C° 0 mm 1 mps 761 mmHg 92%
06:00 +14°C° 0 mm 1 mps 761 mmHg 86%
07:00 +16°C° 0 mm 1 mps 761 mmHg 81%
08:00 +18°C° 0 mm 1 mps 761 mmHg 75%
09:00 +20°C° 0 mm 1 mps 761 mmHg 70%
10:00 +21°C° 0 mm 1 mps 761 mmHg 64%
11:00 +22°C° 0 mm 1 mps 761 mmHg 59%
12:00 +23°C° 0 mm 1 mps 761 mmHg 56%
13:00 +24°C° 0 mm 2 mps 761 mmHg 53%
14:00 +25°C° 0 mm 2 mps 760 mmHg 50%
15:00 +25°C° 0 mm 2 mps 760 mmHg 51%
16:00 +25°C° 0 mm 2 mps 760 mmHg 53%
17:00 +25°C° 0 mm 2 mps 760 mmHg 54%
18:00 +23°C° 0 mm 1 mps 760 mmHg 61%
19:00 +21°C° 0 mm 1 mps 760 mmHg 67%
20:00 +20°C° 0 mm 1 mps 760 mmHg 73%
21:00 +19°C° 0 mm 1 mps 761 mmHg 77%
22:00 +18°C° 0 mm 1 mps 761 mmHg 81%
23:00 +16°C° 0 mm 1 mps 761 mmHg 85%

15 August, Saturday

Time Temperature Precipitation Wind Pressure Humidity
00:00 +16°C° 0 mm 1 mps 761 mmHg 87%
01:00 +15°C° 0 mm 1 mps 761 mmHg 89%
02:00 +15°C° 0 mm 1 mps 761 mmHg 90%
03:00 +15°C° 0 mm 1 mps 761 mmHg 91%
04:00 +15°C° 0 mm 1 mps 761 mmHg 92%
05:00 +14°C° 0 mm 1 mps 761 mmHg 93%
06:00 +16°C° 0 mm 1 mps 762 mmHg 87%
07:00 +19°C° 0 mm 1 mps 762 mmHg 81%
08:00 +20°C° 0 mm 1 mps 762 mmHg 75%
09:00 +22°C° 0 mm 1 mps 762 mmHg 69%
10:00 +24°C° 0 mm 1 mps 762 mmHg 62%
11:00 +25°C° 0 mm 1 mps 762 mmHg 55%
12:00 +26°C° 0 mm 1 mps 762 mmHg 52%
13:00 +26°C° 0 mm 2 mps 762 mmHg 49%
14:00 +27°C° 0 mm 2 mps 762 mmHg 46%
15:00 +27°C° 0 mm 2 mps 762 mmHg 48%
16:00 +27°C° 0 mm 2 mps 762 mmHg 49%
17:00 +26°C° 0 mm 1 mps 762 mmHg 50%
18:00 +24°C° 0 mm 1 mps 762 mmHg 57%
19:00 +22°C° 0 mm 1 mps 762 mmHg 63%
20:00 +18°C° 0 mm 0 mps 762 mmHg 70%
21:00 +17°C° 0 mm 0 mps 762 mmHg 72%
22:00 +17°C° 0 mm 0 mps 762 mmHg 75%
23:00 +16°C° 0 mm 0 mps 762 mmHg 77%

16 August, Sunday

Time Temperature Precipitation Wind Pressure Humidity
00:00 +16°C° 0 mm 0 mps 762 mmHg 79%
01:00 +18°C° 0 mm 1 mps 762 mmHg 80%
02:00 +16°C° 0 mm 1 mps 762 mmHg 81%
03:00 +16°C° 0 mm 1 mps 762 mmHg 84%
04:00 +16°C° 0 mm 1 mps 762 mmHg 86%
05:00 +15°C° 0 mm 1 mps 762 mmHg 88%
06:00 +18°C° 0 mm 1 mps 762 mmHg 81%
07:00 +20°C° 0 mm 1 mps 762 mmHg 74%
08:00 +22°C° 0 mm 1 mps 762 mmHg 67%
09:00 +23°C° 0 mm 1 mps 762 mmHg 62%
10:00 +25°C° 0 mm 2 mps 762 mmHg 57%
11:00 +27°C° 0 mm 2 mps 762 mmHg 52%
12:00 +27°C° 0 mm 2 mps 762 mmHg 50%
13:00 +28°C° 0 mm 2 mps 762 mmHg 48%
14:00 +29°C° 0 mm 2 mps 762 mmHg 47%
15:00 +28°C° 0 mm 2 mps 762 mmHg 48%
16:00 +28°C° 0 mm 2 mps 762 mmHg 50%
17:00 +28°C° 0 mm 2 mps 762 mmHg 51%
18:00 +26°C° 0 mm 2 mps 762 mmHg 59%
19:00 +24°C° 0 mm 1 mps 762 mmHg 67%
20:00 +22°C° 0 mm 1 mps 762 mmHg 75%
21:00 +21°C° 0 mm 1 mps 762 mmHg 77%
22:00 +20°C° 0 mm 1 mps 762 mmHg 80%
23:00 +19°C° 0 mm 1 mps 762 mmHg 83%

17 August, Monday

Time Temperature Precipitation Wind Pressure Humidity
00:00 +19°C° 0 mm 1 mps 762 mmHg 85%
01:00 +18°C° 0 mm 1 mps 762 mmHg 87%
02:00 +18°C° 0 mm 1 mps 762 mmHg 89%
03:00 +18°C° 0 mm 1 mps 762 mmHg 89%
04:00 +15°C° 0 mm 0 mps 762 mmHg 90%
05:00 +15°C° 0 mm 0 mps 762 mmHg 90%
06:00 +19°C° 0 mm 1 mps 762 mmHg 83%
07:00 +21°C° 0 mm 1 mps 762 mmHg 76%
08:00 +23°C° 0 mm 1 mps 762 mmHg 69%
09:00 +24°C° 0 mm 1 mps 762 mmHg 64%
10:00 +25°C° 0 mm 1 mps 762 mmHg 60%
11:00 +27°C° 0 mm 1 mps 762 mmHg 55%
12:00 +27°C° 0 mm 2 mps 762 mmHg 53%
13:00 +28°C° 0 mm 2 mps 762 mmHg 51%
14:00 +28°C° 0 mm 2 mps 761 mmHg 50%
15:00 +28°C° 0 mm 2 mps 761 mmHg 51%
16:00 +28°C° 0 mm 2 mps 761 mmHg 53%
17:00 +28°C° 0 mm 2 mps 761 mmHg 54%
18:00 +26°C° 0 mm 1 mps 760 mmHg 61%
19:00 +24°C° 0 mm 1 mps 760 mmHg 67%
20:00 +22°C° 0 mm 1 mps 760 mmHg 74%
21:00 +22°C° 0 mm 1 mps 760 mmHg 76%
22:00 +21°C° 0 mm 1 mps 760 mmHg 78%
23:00 +20°C° 0 mm 1 mps 760 mmHg 81%
Show more